Starlink 32514

operational
NORAD ID: 61965 Int'l Des: 2024-210 Owner: SPXS Country: US Constellation: starlink
LEOCIRCULAR

About Starlink 32514

Description loading...

Live Position

Loading 3D Globe...

Upcoming Passes

Altitude History

Altitude vs Time

uPlot chart will show altitude changes over time

Two-Line Element Set

1 61965U 24210G 25257.94603941 .00009546 00000-0 35600-3 0 9994
2 61965 43.0010 85.2906 0000964 245.7750 114.3002 15.27575446 48117
Epoch: Sep 14, 2025 • Age: 19 hours

Current Status

Altitude 482.5 km
Velocity 7.63 km/s
Sub-Earth Point 6.83°N, 170.44°W
Launch Date Nov 14, 2024
Age 0.8 years
Type internet

Technical Details

Classification Payload
Mass 730.00 kg
Dry Mass 700.00 kg
Total Mass 730.00 kg
Length 0.30 m
Diameter 4.10 m
Span 29.00 m
Shape Box + pan
Manufacturer SPXS
Bus Type Starlink V2M
Phase Status In Orbit
Owner/State SPXS/US

Large Constellations

Loading constellations...